Weather History for KERI - October, 2012

Change the Weather History Date:

Saturday, October 13, 2012

  Actual Average Record
Temperature  
Mean Temperature 46 °F 54 °F  
Max Temperature 59 °F 62 °F 83 °F (1983)
Min Temperature 33 °F 46 °F 33 °F (1957)
Degree Days  
Heating Degree Days 19 11  
Month to date heating degree days 161 125  
Since 1 July heating degree days 285 249  
Cooling Degree Days 0 0  
Month to date cooling degree days 3 7  
Year to date cooling degree days 890 636  
Moisture  
Dew Point 32 °F    
Average Humidity 60    
Maximum Humidity 82    
Minimum Humidity 38    
Precipitation  
Precipitation 0.20 in 0.13 in 1.15 in (1999)
Month to date precipitation 2.93 1.86  
Year to date precipitation 27.96 32.30  
Snow  
Snow 0.00 in 0.00 in - ()
Month to date snowfall 0.0 0.0  
Since 1 July snowfall 0.0 0.0  
Since 1 September snowfall 0.0 0.0  
Snow Depth 0.00 in    
Sea Level Pressure  
Sea Level Pressure 30.25 in    
Wind  
Wind Speed 13 mph (SSE)    
Max Wind Speed 24 mph    
Max Gust Speed 35 mph    
Visibility 10 miles    
Events Rain    
T = Trace of Precipitation, MM = Missing Value Source: NWS Daily Summary

Daily Weather History Graph

Daily Weather History Graph

Search for Another Location

Airport or City:

Trip Planner

Search our weather history database for the weather conditions in past years. The results will help you decide how hot, cold, wet, or windy it might be!

Date:

Astronomy

Oct. 13, 2012 Rise Set
Actual Time 7:31 AM EDT 6:41 PM EDT
Civil Twilight 7:03 AM EDT 7:09 PM EDT
Nautical Twilight 6:30 AM EDT 7:41 PM EDT
Astronomical Twilight 5:58 AM EDT 8:14 PM EDT
Moon 5:17 AM EDT (10/13) 5:25 PM EDT (10/13)
Length of Visible Light 12h 06m
Length of Day
11h 09m
Waning Crescent, 5% of the Moon is Illuminated
Oct 13
Waning Crescent
Oct 15
New
Oct 21
First Quarter
Oct 29
Full
Nov 6
Last Quarter

Hourly Weather History & Observations

Time (EDT) Temp. Windchill Dew Point Humidity Pressure Visibility Wind Dir Wind Speed Gust Speed Precip Events Conditions
12:51 AM 37.4 °F 31.4 °F 28.4 °F 70% 30.41 in 10.0 mi SSE 8.1 mph - N/A   Clear
1:51 AM 33.8 °F 27.0 °F 28.4 °F 81% 30.43 in 10.0 mi South 8.1 mph - N/A   Clear
2:51 AM 33.8 °F 27.0 °F 26.6 °F 75% 30.41 in 10.0 mi SSE 8.1 mph - N/A   Clear
3:51 AM 35.1 °F 27.9 °F 26.1 °F 70% 30.42 in 10.0 mi SE 9.2 mph - N/A   Clear
4:51 AM 35.1 °F 26.9 °F 25.0 °F 67% 30.40 in 10.0 mi SSE 11.5 mph - N/A   Clear
5:51 AM 35.1 °F 27.4 °F 24.1 °F 64% 30.40 in 10.0 mi SSE 10.4 mph - N/A   Clear
6:51 AM 35.6 °F 26.6 °F 24.8 °F 65% 30.39 in 10.0 mi SSE 13.8 mph - N/A   Clear
7:51 AM 35.1 °F 25.9 °F 24.1 °F 64% 30.40 in 10.0 mi SSE 13.8 mph - N/A   Clear
8:51 AM 39.0 °F 31.4 °F 25.0 °F 57% 30.38 in 10.0 mi SSE 12.7 mph - N/A   Clear
9:51 AM 43.0 °F 35.1 °F 26.1 °F 51% 30.37 in 10.0 mi SSE 17.3 mph 20.7 mph N/A   Clear
10:51 AM 46.9 °F - 27.0 °F 46% 30.35 in 10.0 mi SSE 16.1 mph 20.7 mph N/A   Clear
11:51 AM 50.0 °F - 28.9 °F 44% 30.33 in 10.0 mi SSE 15.0 mph - N/A   Clear
12:51 PM 51.1 °F - 30.0 °F 44% 30.30 in 10.0 mi South 9.2 mph - N/A   Scattered Clouds
1:51 PM 53.6 °F - 30.2 °F 41% 30.24 in 10.0 mi South 11.5 mph - N/A   Partly Cloudy
2:51 PM 53.1 °F - 30.0 °F 41% 30.22 in 10.0 mi SSE 13.8 mph - N/A   Clear
3:51 PM 55.0 °F - 30.9 °F 40% 30.16 in 10.0 mi SSE 13.8 mph 21.9 mph N/A   Clear
4:51 PM 57.0 °F - 33.1 °F 40% 30.12 in 10.0 mi SSE 10.4 mph 19.6 mph N/A   Partly Cloudy
5:51 PM 57.9 °F - 36.0 °F 44% 30.09 in 10.0 mi South 8.1 mph - N/A   Overcast
6:51 PM 59.0 °F - 39.2 °F 48% 30.01 in 10.0 mi South 17.3 mph 28.8 mph N/A   Mostly Cloudy
7:51 PM 59.0 °F - 42.8 °F 55% 30.00 in 10.0 mi South 16.1 mph 27.6 mph N/A   Overcast
8:51 PM 55.9 °F - 48.0 °F 75% 30.02 in 5.0 mi South 13.8 mph 20.7 mph 0.08 in Rain Rain
9:51 PM 57.2 °F - 48.2 °F 72% 29.99 in 10.0 mi South 16.1 mph 25.3 mph N/A Rain Light Rain
10:51 PM 57.9 °F - 48.9 °F 72% 29.98 in 10.0 mi South 20.7 mph 29.9 mph 0.00 in Rain Light Rain
11:51 PM 57.2 °F - 50.0 °F 77% 29.97 in 9.0 mi South 15.0 mph - N/A Rain Light Rain